Probability
0 0 0 0 0 0 0 0 0 0 0 0 0 0 0 0 0 0 0 0 0 0 0 0 0 0 0 0 0 0 0 0 0 0 0 0 0 0
0 0 0 0 0 0 0 0 0 0 0 0 0 0 0 0 0 0 0 0 0 0 0 0 0 0 0 0 0 0 0 0 0 0 0 0 0 0
0 0 0 0 0 0 0 0 0 0 0 0 0 0 0 0 0 0 0 0 0 0 0 0 0 0 0 0 0 0 0 0 0 0 0 0 0 0
0 0 0 0 0 0 0 0 0 0 0 0 0 0 0 0 0 0 0 0 0 0 0 0 0 0 0 0 0 0 0 0 0 0 0 0 0 0
0 0 0 0 0 0 0 0 0 0 0 0 0 0 0 0 0 0 0 0 0 0 0 0 0 0 0 0 0 0 0 0 0 0 0 0 0 0
0 0 0 0 0 0 0 0 0 0 0 0 0 0 0 0 0 0 0 0 0 0 0 0 0 0 0 0 0 0 0 0 0 0 0 0 0 0
0 0 0 0 0 0 0 0 0 0 0 0 0 0 0 0 0 0 0 0 0 0 0 0 0 0 0 0 0 0 0 0 0 0 0 0 0 0
0 0 0 0 0 0 0 0 0 0 0 0 0 0 0 0 0 0 0 0 0 0 0 0 0 0 0 0 0 0 0 0 0 0 0 0 0 0
0 0 0 0 0 0 0 0 0 0 0 0 0 0 0 0 0 0 0 0 0 0 0 0 0 0 0 0 0 0 0 0 0 0 0 0 0 0
0 0 0 0 0 0 0 0 0 0 0 0 0 0 0 0 0 0 0 0 0 0 0 0 0 0 0 0 0 0 0 0 0 0 0 0 0 0
0 0 0 0 0 0 0 0 0 0 0 0 0 0 0 0 0 0 0 0 0 0 0 0 0 0 0 0 0 0 0 0 0 0 0 0 0 0
0 0 0 0 0 0 0 0 0 0 0 0 0 0 0 0 0 0 0 0 0 0 0 0 0 0 0 0 0 0 0 0 0 0 0 0 0 0
0 0 0 0 0 0 0 0 0 0 0 0 0 0 0 0 0 0 0 0 0 0 0 0 0 0 0 0 0 0 0 0 0 0 0 0 0 0
0 0 0 0 0 0 0 0 0 0 0 0 0 0 0 0 0 0 0 0 0 0 0 0 0 0 0 0 0 0 0 0 0 0 0 0 0 0
0 0 0 0 0 0 0 0 0 0 0 0 0 0 0 0 0 0 0 0 0 0 0 0 0 0 0 0 0 0 0 0 0 0 0 0 0 0
0 0 0 0 0 0 0 0 0 0 0 0 0 0 0 0 0 0 0 0 0 0 0 0 0 0 0 0 0 0 0 0 0 0 0 0 0 0
0 0 0 0 0 0 0 0 0 0 0 0 0 0 0 0 0 0 0 0 0 0 0 0 0 0 0 0 0 0 0 0 0 0 0 0 0 0
0 0 0 0 0 0 0 0 0 0 0 0 0 0 0 0 0 0 0 0 0 0 0 0 0 0 0 0 0 0 0 0 0 0 0 0 0 0
0 0 0 0 0 0 0 0 0 0 0 0 0 0 0 0 0 0 0 0 0 0 0 0 0 0 0 0 0 0 0 0 0 0 0 0 0 0
0 0 0 0 0 0 0 0 0 0 0 0 0 0 0 0 0 0 0 0 0 0 0 0 0 0 0 0 0 0 0 0 0 0 0 0 0 0
0 0 0 0 0 0 0 0 0 0 0 0 0 0 0 0 0 0 0 0 0 0 0 0 0 0 0 0 0 0 0 0 0 0 0 0 0 0
0 0 0 0 0 0 0 0 0 0 0 0 0 0 0 0 0 0 0 0 0 0 0 0 0 0 0 0 0 0 0 0 0 0 0 0 0 0
0 0 0 0 0 0 0 0 0 0 0 0 0 0 0 0 0 0 0 0 0 0 0 0 0 0 0 0 0 0 0 0 0 0 0 0 0 0
Height
5743 5741 5740 5738 5736 5735 5733 5731 5729 5727 5726 5723 5721 5718 5715 5713 5710 5708 5706 5703 5701 5699 5697 5695 5694 5692 5691 5690 5688 5687 5687 5686 5685 5684 5683 5682 5681 5680
5730 5729 5728 5726 5725 5723 5721 5719 5717 5715 5714 5711 5709 5707 5704 5702 5700 5697 5696 5694 5692 5690 5688 5687 5685 5684 5683 5682 5681 5680 5679 5678 5677 5676 5675 5675 5674 5673
5718 5717 5715 5714 5712 5711 5709 5707 5705 5703 5701 5699 5697 5695 5693 5691 5689 5687 5685 5684 5682 5680 5679 5678 5677 5676 5675 5674 5673 5672 5671 5671 5670 5669 5668 5668 5667 5666
5705 5704 5703 5701 5700 5698 5696 5694 5692 5690 5689 5687 5685 5684 5682 5680 5679 5677 5676 5674 5673 5671 5670 5669 5668 5667 5666 5666 5665 5664 5664 5663 5662 5662 5661 5660 5660 5659
5692 5691 5690 5688 5687 5685 5684 5682 5680 5678 5677 5676 5674 5673 5671 5670 5669 5667 5666 5665 5664 5663 5662 5661 5660 5659 5658 5658 5657 5656 5656 5655 5655 5654 5654 5653 5652 5652
5680 5678 5677 5676 5674 5673 5671 5670 5668 5667 5665 5664 5663 5662 5661 5660 5659 5658 5657 5656 5655 5654 5653 5652 5651 5651 5650 5649 5649 5648 5648 5647 5647 5646 5646 5645 5644 5644
5667 5666 5665 5664 5662 5661 5660 5658 5657 5656 5654 5653 5652 5652 5651 5650 5649 5648 5648 5647 5646 5645 5645 5644 5643 5642 5642 5641 5640 5640 5639 5639 5638 5638 5637 5636 5636 5635
5655 5654 5653 5652 5650 5649 5648 5647 5646 5645 5644 5643 5642 5642 5641 5641 5640 5639 5639 5638 5638 5637 5636 5635 5634 5634 5633 5633 5632 5631 5631 5630 5629 5629 5628 5627 5626 5625
5644 5643 5642 5640 5639 5638 5637 5636 5635 5634 5634 5633 5633 5632 5632 5631 5631 5631 5630 5629 5629 5628 5627 5627 5626 5625 5624 5624 5623 5622 5621 5620 5620 5619 5618 5617 5616 5615
5632 5631 5631 5629 5628 5627 5626 5625 5625 5624 5624 5623 5623 5623 5623 5622 5622 5622 5621 5621 5620 5619 5618 5618 5617 5616 5615 5614 5613 5612 5611 5610 5609 5608 5607 5606 5605 5604
5621 5621 5620 5619 5618 5617 5616 5616 5615 5615 5614 5614 5614 5614 5614 5613 5613 5613 5612 5612 5611 5610 5610 5609 5608 5607 5606 5605 5603 5602 5601 5599 5598 5597 5595 5594 5593 5591
5611 5610 5610 5609 5608 5607 5607 5607 5606 5606 5606 5606 5605 5605 5605 5605 5604 5604 5603 5603 5602 5601 5600 5599 5598 5597 5596 5594 5593 5591 5590 5588 5587 5585 5583 5582 5580 5579
5602 5601 5600 5600 5599 5599 5598 5598 5598 5597 5597 5597 5597 5597 5596 5596 5595 5595 5594 5594 5593 5592 5591 5589 5588 5586 5585 5583 5582 5580 5578 5577 5575 5573 5571 5569 5567 5565
5593 5592 5592 5591 5591 5590 5590 5589 5589 5589 5589 5589 5588 5588 5588 5587 5586 5586 5585 5584 5583 5582 5580 5579 5577 5576 5574 5572 5570 5568 5566 5565 5563 5560 5558 5556 5554 5552
5584 5583 5583 5582 5582 5582 5582 5581 5581 5581 5580 5580 5580 5579 5579 5578 5577 5576 5575 5574 5572 5571 5569 5568 5566 5564 5562 5560 5558 5556 5554 5552 5550 5548 5545 5542 5540 5537
5575 5575 5574 5574 5574 5574 5573 5573 5573 5572 5572 5571 5571 5570 5569 5568 5567 5566 5565 5563 5562 5560 5559 5557 5555 5553 5550 5548 5546 5543 5541 5539 5537 5534 5531 5528 5526 5523
5566 5566 5566 5566 5565 5565 5565 5564 5564 5563 5563 5562 5561 5560 5559 5558 5557 5556 5554 5552 5551 5549 5547 5545 5543 5541 5538 5536 5533 5530 5528 5526 5523 5521 5518 5515 5512 5510
5558 5557 5557 5557 5556 5556 5556 5555 5554 5554 5553 5552 5551 5550 5549 5548 5546 5545 5543 5541 5539 5537 5535 5533 5531 5528 5526 5523 5521 5517 5515 5512 5510 5507 5504 5501 5498 5495
5548 5548 5548 5547 5547 5546 5546 5545 5544 5544 5543 5542 5541 5540 5538 5537 5535 5533 5531 5529 5527 5525 5522 5520 5518 5516 5513 5510 5507 5504 5501 5498 5496 5493 5491 5488 5485 5481
5539 5538 5538 5537 5537 5536 5535 5535 5534 5533 5532 5531 5530 5528 5527 5525 5523 5521 5519 5517 5515 5512 5510 5507 5505 5503 5500 5497 5494 5490 5487 5485 5482 5479 5477 5474 5471 5467
5528 5528 5527 5527 5526 5525 5525 5524 5523 5522 5521 5519 5518 5516 5515 5513 5511 5509 5507 5505 5502 5500 5497 5494 5492 5490 5487 5484 5481 5477 5473 5471 5469 5466 5463 5460 5457 5453
5517 5517 5516 5516 5515 5514 5513 5512 5511 5510 5509 5507 5506 5504 5503 5501 5499 5497 5494 5492 5490 5487 5485 5482 5479 5477 5474 5472 5468 5464 5460 5456 5454 5451 5448 5445 5442 5439
5506 5506 5505 5504 5504 5503 5502 5501 5499 5498 5497 5495 5494 5492 5490 5488 5486 5484 5482 5480 5477 5475 5472 5469 5466 5464 5461 5458 5455 5451 5447 5442 5439 5436 5432 5429 5427 5424
Wind_Speed
50 50 49 49 48 47 47 46 46 45 44 44 44 44 44 43 42 41 40 38 37 35 34 31 30 29 28 27 26 26 26 26 26 26 26 25 24 24
50 50 49 49 48 48 47 47 47 46 45 45 45 45 44 43 42 40 39 37 36 34 33 31 30 29 27 26 26 25 26 26 25 25 25 24 24 24
50 50 50 49 49 48 48 48 47 47 47 46 45 44 43 42 41 39 38 36 35 33 32 30 29 28 27 26 26 26 26 25 25 24 24 24 24 25
50 50 50 50 49 48 48 48 48 47 46 45 44 43 42 40 39 38 36 35 33 32 30 29 29 28 27 27 26 26 26 25 25 25 25 25 25 26
49 49 49 48 48 47 47 47 46 45 44 43 42 41 39 39 37 36 35 33 31 30 30 29 28 28 27 27 26 26 26 25 25 26 26 27 27 27
47 47 47 46 46 45 45 44 44 43 42 41 40 39 38 36 35 33 32 31 30 30 29 29 28 28 27 27 27 26 26 26 27 27 28 28 28 28
45 45 45 44 44 43 43 42 41 40 39 38 37 36 35 34 32 31 31 30 30 30 29 29 29 28 27 27 27 27 28 28 28 29 29 30 30 30
44 43 43 42 42 41 40 39 38 38 37 36 35 34 33 32 31 30 30 30 30 30 29 29 28 28 28 28 28 29 29 29 30 30 31 31 32 33
42 41 40 40 39 39 38 37 36 35 34 34 33 32 31 30 30 30 30 30 29 29 29 28 28 29 29 29 30 30 31 31 32 33 33 34 34 35
40 39 39 38 38 37 36 35 34 34 33 32 31 30 30 29 29 30 30 29 29 29 29 29 29 30 31 31 31 32 33 33 34 35 35 36 37 37
37 37 36 36 35 35 34 33 33 32 31 30 29 29 29 29 29 29 29 29 29 29 29 30 31 31 32 32 33 33 34 35 35 36 36 37 38 38
34 34 34 33 33 32 32 31 30 30 29 29 29 29 29 29 29 29 29 29 30 30 30 31 31 32 32 33 34 34 35 35 36 37 37 38 39 40
32 31 31 30 30 30 30 30 29 29 28 28 29 29 29 29 29 29 29 30 30 31 31 32 32 33 33 34 35 35 36 36 37 38 38 39 40 41
30 29 29 29 29 29 29 29 28 28 28 28 28 28 29 29 29 30 30 31 31 32 32 32 33 34 35 35 36 36 37 37 38 39 39 40 41 42
29 28 28 28 28 28 28 28 28 28 28 29 29 30 30 30 30 30 31 32 32 33 33 34 35 35 36 37 38 38 38 39 39 40 41 41 42 42
28 28 28 28 28 28 28 28 28 29 29 29 30 30 30 31 31 32 33 33 34 34 35 35 36 37 38 38 39 39 40 40 40 40 41 41 42 42
28 28 28 28 28 28 29 29 29 30 30 30 30 31 32 32 33 34 34 35 36 36 36 37 38 38 39 39 40 40 41 41 41 41 41 41 41 41
28 28 28 29 29 30 30 30 30 31 31 31 32 33 33 34 35 35 36 36 37 37 38 39 39 39 39 40 40 41 41 41 41 40 40 40 41 41
30 30 30 30 31 31 31 31 32 32 33 33 34 34 35 35 36 37 37 38 38 39 39 40 40 40 40 40 41 42 41 41 41 41 40 40 41 42
31 32 32 32 32 32 33 33 33 34 35 36 36 36 37 37 38 38 38 39 39 40 40 40 40 40 40 40 41 42 41 41 41 41 41 41 42 43
33 33 33 34 34 34 34 35 35 36 37 37 38 38 38 38 38 39 39 39 39 40 40 40 40 39 39 40 40 41 42 42 42 42 42 42 42 43
34 35 35 36 36 36 36 37 37 38 38 38 38 38 38 38 39 39 39 39 39 39 39 40 40 40 40 40 41 42 43 44 44 44 44 44 43 43
35 35 36 36 37 37 38 38 38 38 38 38 38 38 38 38 39 39 39 39 39 39 39 40 40 40 41 42 42 42 43 44 45 45 45 46 45 43
Wind_Direction
279 280 280 281 283 283 283 284 284 285 285 286 287 287 288 289 289 288 288 288 288 288 286 285 284 283 282 281 279 279 280 281 281 281 281 281 280 280
279 280 280 280 281 282 283 283 284 284 284 284 285 286 286 286 287 287 287 286 286 285 284 283 282 281 281 279 278 279 281 281 280 280 280 279 279 280
279 278 279 280 281 281 282 282 282 282 282 283 283 284 284 284 285 285 284 284 284 283 282 281 280 279 278 277 278 279 280 280 279 279 280 280 280 280
278 279 279 280 280 280 280 280 281 281 281 281 281 282 282 282 282 282 282 282 281 280 280 280 278 277 276 277 278 279 279 278 278 278 279 280 280 280
278 278 279 279 279 279 280 280 280 280 280 280 279 280 280 280 280 280 280 280 279 279 279 278 277 277 276 277 277 278 278 277 277 278 278 279 279 279
277 278 278 278 278 279 279 279 279 278 278 278 278 278 278 277 277 277 277 277 277 278 277 277 277 276 276 276 277 277 277 277 277 277 278 278 278 278
278 278 278 278 279 278 278 278 278 278 277 276 276 276 275 274 274 274 275 276 277 277 276 276 276 276 277 277 277 277 277 277 277 277 278 277 277 277
278 278 278 278 278 277 277 276 275 275 274 274 274 273 272 272 272 274 275 276 276 276 276 276 276 276 277 277 277 278 278 278 278 278 278 278 277 277
277 277 277 277 277 276 276 275 274 273 272 272 271 271 271 271 273 274 275 276 276 276 276 276 276 276 277 278 278 279 279 279 279 279 279 278 278 277
275 275 276 276 275 274 274 273 272 270 269 270 269 269 270 272 274 275 275 276 276 276 277 277 278 278 279 279 279 279 279 280 280 280 280 279 279 278
274 275 276 276 275 273 272 271 270 269 268 267 267 268 270 272 274 275 275 275 276 277 278 278 279 280 280 280 280 280 280 281 281 281 281 280 280 279
275 275 275 275 274 272 271 270 269 268 267 267 268 270 272 274 275 275 276 276 277 279 279 280 280 281 281 281 282 282 282 282 282 282 281 281 280 279
274 274 274 273 271 271 270 269 268 269 268 268 269 270 271 274 276 277 278 278 279 280 281 281 281 281 282 283 283 283 283 284 283 282 282 281 281 280
272 272 272 272 272 272 271 270 270 270 270 270 270 272 274 276 277 278 279 280 280 281 281 281 282 282 283 284 284 285 285 285 285 284 283 282 282 281
271 271 271 270 271 271 270 270 271 273 273 272 273 274 276 277 278 279 281 282 282 281 282 283 283 283 284 284 285 285 286 286 286 286 285 284 283 282
271 271 271 272 272 272 272 271 272 273 275 275 276 277 278 279 280 281 282 283 283 283 284 284 284 284 284 285 285 285 286 286 287 287 286 285 284 283
270 270 270 271 271 271 272 272 273 273 274 275 276 278 279 280 281 282 283 284 284 284 284 284 284 285 285 286 286 286 287 287 287 287 287 286 285 284
270 270 271 272 272 273 273 273 273 273 274 276 277 279 280 281 281 282 283 284 283 284 285 285 285 285 286 286 286 287 287 287 288 287 287 286 286 285
269 271 272 273 273 273 273 273 274 274 275 277 278 279 280 281 282 282 283 283 284 284 285 286 286 286 286 287 288 288 288 288 288 287 287 287 286 286
270 271 272 273 273 274 274 274 275 276 276 277 278 279 280 281 282 282 283 283 284 285 286 286 286 287 287 287 288 288 288 288 288 289 288 288 287 287
270 271 271 272 274 274 275 276 276 277 277 278 278 279 280 281 282 283 283 283 284 285 286 286 287 287 287 287 288 288 289 289 289 289 289 289 288 288
271 271 271 272 273 274 275 276 276 277 277 278 278 280 281 282 282 283 284 284 285 285 286 287 288 288 288 288 288 288 289 290 290 290 290 289 289 288
272 272 273 273 274 275 276 276 277 277 277 278 278 279 281 282 282 283 283 284 285 285 286 287 288 289 289 290 290 289 289 290 291 291 291 291 290 289